Weather History for Provincetown, MA

Change the Weather History Date:

Friday, April 11, 2014

  Actual Average Record
Temperature  
Mean Temperature 52 °F -  
Max Temperature 59 °F 48 °F 67 °F (1952)
Min Temperature 44 °F 37 °F 33 °F (1997)
Degree Days  
Heating Degree Days 14    
Growing Degree Days 2 (Base 50)    
Moisture  
Dew Point 41 °F    
Average Humidity 75    
Maximum Humidity 87    
Minimum Humidity 58    
Precipitation  
Precipitation 0.23 in - - ()
Sea Level Pressure  
Sea Level Pressure 30.00 in    
Wind  
Wind Speed 13 mph (SSW)    
Max Wind Speed 21 mph    
Max Gust Speed 28 mph    
Visibility 10 miles    
Events      
Averages and records for this station are not official NWS values.
T = Trace of Precipitation, MM = Missing Value Source: NWS Daily Summary

Daily Weather History Graph

Daily Weather History Graph

Search for Another Location

Airport:

Trip Planner

Search our weather history database for the weather conditions in past years. The results will help you decide how hot, cold, wet, or windy it might be!

Date:

Astronomy

Apr. 11, 2014 Rise Set
Actual Time 6:06 AM EDT 7:17 PM EDT
Civil Twilight 5:38 AM EDT 7:46 PM EDT
Nautical Twilight 5:03 AM EDT 8:20 PM EDT
Astronomical Twilight 4:27 AM EDT 8:57 PM EDT
Moon 3:51 PM EDT (4/11) 4:03 AM EDT (4/11)
Length of Visible Light 14h 08m
Length of Day
13h 10m
Waxing Gibbous, 87% of the Moon is Illuminated
Apr 11
Waxing Gibbous
Apr 15
Full
Apr 22
Last Quarter
Apr 29
New
May 6
First Quarter

Hourly Weather History & Observations

Time (EDT) Temp. Windchill Dew Point Humidity Pressure Visibility Wind Dir Wind Speed Gust Speed Precip Events Conditions
12:15 AM 44.6 °F 37.8 °F 39.2 °F 81% 30.05 in 10.0 mi SSW 15.0 mph 24.2 mph N/A   Clear
12:35 AM 44.6 °F 37.2 °F 39.2 °F 81% 30.05 in 10.0 mi SSW 17.3 mph 23.0 mph N/A   Clear
12:55 AM 44.6 °F 37.4 °F 39.2 °F 81% 30.05 in 10.0 mi SSW 16.1 mph 24.2 mph 0.01 in   Clear
1:15 AM 44.6 °F 36.4 °F 39.2 °F 81% 30.05 in 10.0 mi SSW 20.7 mph 26.5 mph N/A   Clear
1:35 AM 46.4 °F 39.2 °F 39.2 °F 76% 30.05 in 10.0 mi SSW 18.4 mph 23.0 mph 0.02 in   Clear
1:55 AM 46.4 °F 39.8 °F 39.2 °F 76% 30.05 in 10.0 mi SSW 16.1 mph 21.9 mph 0.02 in   Clear
2:15 AM 46.4 °F 40.7 °F 39.2 °F 76% 30.04 in 10.0 mi SSW 12.7 mph 20.7 mph N/A   Mostly Cloudy
2:35 AM 46.4 °F 40.7 °F 39.2 °F 76% 30.04 in 10.0 mi SW 12.7 mph 18.4 mph N/A   Scattered Clouds
2:55 AM 44.6 °F 38.8 °F 39.2 °F 81% 30.04 in 10.0 mi SW 11.5 mph - N/A   Mostly Cloudy
3:15 AM 44.6 °F 38.8 °F 39.2 °F 81% 30.04 in 10.0 mi SSW 11.5 mph - N/A   Overcast
3:35 AM 44.6 °F 39.2 °F 39.2 °F 81% 30.02 in 10.0 mi South 10.4 mph - N/A   Mostly Cloudy
3:55 AM 46.4 °F 41.1 °F 39.2 °F 76% 30.01 in 10.0 mi South 11.5 mph - N/A   Mostly Cloudy
4:15 AM 46.4 °F 40.7 °F 37.4 °F 71% 30.00 in 10.0 mi SSW 12.7 mph 24.2 mph N/A   Mostly Cloudy
4:35 AM 48.2 °F - 37.4 °F 66% 30.00 in 10.0 mi SSW 12.7 mph - 0.01 in   Overcast
4:55 AM 46.4 °F 41.1 °F 39.2 °F 76% 29.99 in 10.0 mi South 11.5 mph - 0.02 in   Overcast
5:15 AM 46.4 °F 40.7 °F 39.2 °F 76% 29.98 in 10.0 mi SSW 12.7 mph - N/A   Overcast
5:35 AM 48.2 °F - 39.2 °F 71% 29.98 in 10.0 mi SSW 19.6 mph 24.2 mph 0.01 in   Overcast
5:55 AM 50.0 °F - 39.2 °F 66% 29.98 in 10.0 mi SSW 20.7 mph 27.6 mph 0.02 in   Scattered Clouds
6:15 AM 48.2 °F - 39.2 °F 71% 29.98 in 10.0 mi South 16.1 mph 26.5 mph 0.01 in   Scattered Clouds
6:35 AM 48.2 °F - 39.2 °F 71% 29.99 in 10.0 mi SSW 16.1 mph 21.9 mph 0.01 in   Partly Cloudy
6:55 AM 48.2 °F - 39.2 °F 71% 30.00 in 10.0 mi SSW 11.5 mph - 0.02 in   Mostly Cloudy
7:15 AM 48.2 °F - 41.0 °F 76% 30.00 in 10.0 mi SSW 16.1 mph - N/A   Overcast
7:35 AM 46.4 °F 39.8 °F 41.0 °F 81% 30.00 in 10.0 mi SSW 16.1 mph - N/A   Mostly Cloudy
7:55 AM 48.2 °F - 41.0 °F 76% 30.00 in 9.0 mi SSW 15.0 mph 21.9 mph N/A   Clear
8:15 AM 46.4 °F 39.5 °F 41.0 °F 81% 30.00 in 9.0 mi SSW 17.3 mph 24.2 mph N/A   Partly Cloudy
8:55 AM 46.4 °F 39.8 °F 41.0 °F 81% 30.00 in 9.0 mi SSW 16.1 mph 21.9 mph N/A   Mostly Cloudy
9:15 AM 46.4 °F 40.7 °F 41.0 °F 81% 30.01 in 9.0 mi SSW 12.7 mph 19.6 mph 0.01 in   Overcast
9:35 AM 46.4 °F 40.4 °F 41.0 °F 81% 30.01 in 9.0 mi SSW 13.8 mph - 0.02 in   Mostly Cloudy
9:55 AM 46.4 °F 40.7 °F 41.0 °F 81% 30.01 in 8.0 mi SSW 12.7 mph 18.4 mph 0.02 in   Mostly Cloudy
10:15 AM 46.4 °F 41.1 °F 42.8 °F 87% 30.02 in 7.0 mi SW 11.5 mph 18.4 mph N/A   Overcast
10:35 AM 46.4 °F 41.1 °F 42.8 °F 87% 30.04 in 8.0 mi SW 11.5 mph - N/A   Overcast
10:55 AM 46.4 °F 40.7 °F 42.8 °F 87% 30.03 in 8.0 mi SSW 12.7 mph - 0.01 in   Overcast
11:15 AM 48.2 °F - 42.8 °F 82% 30.01 in 7.0 mi SW 12.7 mph 19.6 mph 0.01 in   Mostly Cloudy
11:35 AM 48.2 °F - 42.8 °F 82% 30.01 in 7.0 mi SW 12.7 mph - 0.01 in   Partly Cloudy
11:55 AM 51.8 °F - 42.8 °F 71% 30.01 in 8.0 mi SW 12.7 mph - 0.01 in   Mostly Cloudy
12:15 PM 51.8 °F - 44.6 °F 76% 30.00 in 9.0 mi SW 12.7 mph - N/A   Scattered Clouds
12:35 PM 51.8 °F - 42.8 °F 71% 30.00 in 8.0 mi SW 12.7 mph 17.3 mph N/A   Scattered Clouds
12:55 PM 53.6 °F - 42.8 °F 67% 30.00 in 9.0 mi SW 10.4 mph - N/A   Partly Cloudy
1:15 PM 55.4 °F - 44.6 °F 67% 29.99 in 10.0 mi SSW 12.7 mph - N/A   Clear
1:35 PM 57.2 °F - 44.6 °F 63% 29.98 in 10.0 mi SSW 12.7 mph 16.1 mph N/A   Clear
1:55 PM 59.0 °F - 44.6 °F 59% 29.98 in 10.0 mi SSW 12.7 mph - N/A   Clear
2:15 PM 59.0 °F - 44.6 °F 59% 29.99 in 10.0 mi SW 13.8 mph - 0.01 in   Clear
2:35 PM 59.0 °F - 44.6 °F 59% 29.97 in 10.0 mi SSW 10.4 mph - 0.02 in   Clear
2:55 PM 57.2 °F - 44.6 °F 63% 29.96 in 10.0 mi SSW 10.4 mph - 0.02 in   Clear
3:15 PM 55.4 °F - 42.8 °F 63% 29.97 in 10.0 mi SW 11.5 mph - N/A   Clear
3:35 PM 53.6 °F - 42.8 °F 67% 29.97 in 10.0 mi SSW 9.2 mph - N/A   Clear
3:55 PM 55.4 °F - 42.8 °F 63% 29.96 in 10.0 mi SSW 10.4 mph - N/A   Clear
4:15 PM 55.4 °F - 42.8 °F 63% 29.96 in 10.0 mi SSW 10.4 mph 17.3 mph N/A   Partly Cloudy
4:35 PM 53.6 °F - 42.8 °F 67% 29.96 in 10.0 mi SSW 10.4 mph - N/A   Mostly Cloudy
4:55 PM 55.4 °F - 42.8 °F 63% 29.96 in 10.0 mi SSW 12.7 mph 18.4 mph N/A   Mostly Cloudy
5:15 PM 55.4 °F - 42.8 °F 63% 29.96 in 10.0 mi SSW 12.7 mph 19.6 mph N/A   Mostly Cloudy
5:35 PM 55.4 °F - 41.0 °F 58% 29.96 in 10.0 mi SSW 11.5 mph - N/A   Partly Cloudy
5:55 PM 53.6 °F - 41.0 °F 62% 29.96 in 10.0 mi SSW 11.5 mph 17.3 mph N/A   Clear
6:15 PM 51.8 °F - 41.0 °F 67% 29.96 in 10.0 mi SSW 12.7 mph - N/A   Clear
6:35 PM 51.8 °F - 41.0 °F 67% 29.98 in 10.0 mi SSW 13.8 mph - N/A   Scattered Clouds
6:55 PM 50.0 °F - 41.0 °F 71% 29.98 in 10.0 mi SSW 12.7 mph - N/A   Mostly Cloudy
7:15 PM 51.8 °F - 41.0 °F 67% 29.98 in 10.0 mi SW 10.4 mph - 0.01 in   Scattered Clouds
7:35 PM 48.2 °F - 39.2 °F 71% 29.99 in 10.0 mi SW 11.5 mph - 0.02 in   Clear
7:55 PM 46.4 °F 41.5 °F 41.0 °F 81% 30.00 in 10.0 mi SSW 10.4 mph - 0.03 in   Clear
8:15 PM 46.4 °F 41.1 °F 42.8 °F 87% 30.01 in 10.0 mi SW 11.5 mph - N/A   Scattered Clouds
8:35 PM 46.4 °F 42.9 °F 42.8 °F 87% 30.02 in 10.0 mi SW 6.9 mph - N/A   Partly Cloudy
8:55 PM 46.4 °F 43.5 °F 42.8 °F 87% 30.02 in 10.0 mi SW 5.8 mph - N/A   Partly Cloudy
9:15 PM 46.4 °F 42.9 °F 41.0 °F 81% 30.03 in 10.0 mi WSW 6.9 mph - 0.01 in   Scattered Clouds
9:35 PM 46.4 °F 44.3 °F 41.0 °F 81% 30.03 in 10.0 mi WSW 4.6 mph - 0.01 in   Mostly Cloudy
9:55 PM 46.4 °F 45.2 °F 41.0 °F 81% 30.02 in 10.0 mi SSW 3.5 mph - 0.02 in   Overcast
10:15 PM 48.2 °F - 42.8 °F 82% 30.02 in 10.0 mi SSW 3.5 mph - N/A   Mostly Cloudy
10:35 PM 48.2 °F - 42.8 °F 82% 30.03 in 10.0 mi South 4.6 mph - N/A   Scattered Clouds
10:55 PM 48.2 °F - 42.8 °F 82% 30.02 in 10.0 mi SSE 3.5 mph - N/A   Clear
11:15 PM 46.4 °F 43.5 °F 42.8 °F 87% 30.02 in 10.0 mi SSW 5.8 mph - 0.01 in   Clear
11:35 PM 48.2 °F - 42.8 °F 82% 30.02 in 10.0 mi South 8.1 mph - 0.03 in   Clear
11:55 PM 46.4 °F 42.4 °F 42.8 °F 87% 30.01 in 10.0 mi South 8.1 mph - 0.03 in   Scattered Clouds